Hourly Data Report for October 05, 2017

All times are specified in Local Standard Time (LST). Add 1 hour to adjust for Daylight Saving Time where and when it is observed.

ISLAND LAKE A
MANITOBA

53°51'26.000" N
94°39'13.000" W
235.30 m
5061375
71145
YIV

Download Data

Hourly Data (October 2017)
Hourly Data Report for October 5, 2017
Temp Definition
°C
Dew Point Temp Definition
°C
Rel Hum Definition
%
Wind Dir Definition
10's deg

Wind Spd Definition
km/h
Visibility Definition
km
Stn Press Definition
kPa
Hmdx Definition


Wind Chill Definition


Weather Definition


TIME
00:00 Legend Double Dagger 3.2 1.2 87 31 10 24.1 98.79     Mainly Clear
01:00 Legend Double Dagger 3.1 1.3 88 31 16 24.1 98.81     LegendNANA
02:00 Legend Double Dagger 2.7 0.6 86 31 10 24.1 98.80     LegendNANA
03:00 Legend Double Dagger 2.3 -0.3 83 30 12 24.1 98.80     Mainly Clear
04:00 Legend Double Dagger 1.7 -2.4 74 31 14 24.1 98.82     LegendNANA
05:00 Legend Double Dagger 1.7 -2.3 74 30 17 24.1 98.87     LegendNANA
06:00 Legend Double Dagger 1.2 -2.5 76 31 19 24.1 98.85     Clear
07:00 Legend Double Dagger 1.6 -1.6 80 30 26 24.1 98.84     LegendNANA
08:00 Legend Double Dagger 2.0 -1.2 79 28 24 24.1 98.85     LegendNANA
09:00 Legend Double Dagger 2.7 -2.4 69 28 23 24.1 98.84     Clear
10:00 Legend Double Dagger 3.7 -2.1 66 28 27 24.1 98.81     LegendNANA
11:00 Legend Double Dagger 5.5 -2.0 58 29 27 24.1 98.77     LegendNANA
12:00 Legend Double Dagger 6.6 -3.1 50 26 21 24.1 98.72     Clear
13:00
14:00 Legend Double Dagger 7.7 -2.5 48 28 34 24.1 98.62     LegendNANA
15:00 Legend Double Dagger 8.6 -2.9 44 27 30 24.1 98.56     Clear
16:00 Legend Double Dagger 8.8 -3.1 43 26 27 24.1 98.53     LegendNANA
17:00 Legend Double Dagger 8.7 -1.9 47 27 26 24.1 98.48     LegendNANA
18:00 Legend Double Dagger 7.9 -0.2 56 26 18 24.1 98.45     Clear
19:00 Legend Double Dagger 7.5 0.9 63 25 19 24.1 98.40     LegendNANA
20:00 Legend Double Dagger 7.3 1.9 68 26 18 24.1 98.34     LegendNANA
21:00 Legend Double Dagger 7.0 2.5 73 25 18 24.1 98.28     Mainly Clear
22:00 Legend Double Dagger 7.2 3.3 76 25 17 24.1 98.24     LegendNANA
23:00 Legend Double Dagger 7.8 4.1 78 25 14 24.1 98.18     LegendNANA

Notes on Data Quality.

Legend

  • E = Estimated
  • M = Missing
  • NA = Not Available
  • ‡ = Partner data that is not subject to review by the National Climate Archives
Date modified: